Weather History for Covington, KY

Change the Weather History Date:

Tuesday, April 1, 2014

  Actual Average Record
Temperature  
Mean Temperature 64 °F 49 °F  
Max Temperature 76 °F 60 °F 82 °F (1963)
Min Temperature 52 °F 39 °F 17 °F (1964)
Degree Days  
Heating Degree Days 1 16  
Month to date heating degree days 1 16  
Since 1 July heating degree days 5027 4509  
Cooling Degree Days 0 0  
Month to date cooling degree days 0 0  
Year to date cooling degree days 0 0  
Growing Degree Days 14 (Base 50)    
Moisture  
Dew Point 32 °F    
Average Humidity 33    
Maximum Humidity 50    
Minimum Humidity 16    
Precipitation  
Precipitation T in 0.13 in 1.53 in (1970)
Month to date precipitation T 0.13  
Year to date precipitation 7.95 9.90  
Snow  
Snow 0.00 in 0.00 in 2.30 in (1996)
Month to date snowfall 0.0 0.0  
Since 1 July snowfall 46.9 21.6  
Snow Depth 0.00 in    
Sea Level Pressure  
Sea Level Pressure 29.96 in    
Wind  
Wind Speed 13 mph (SW)    
Max Wind Speed 30 mph    
Max Gust Speed 43 mph    
Visibility 10 miles    
Events Rain    
T = Trace of Precipitation, MM = Missing Value Source: NWS Daily Summary

Daily Weather History Graph

Daily Weather History Graph

Search for Another Location

Airport:

Trip Planner

Search our weather history database for the weather conditions in past years. The results will help you decide how hot, cold, wet, or windy it might be!

Date:

Astronomy

Apr. 01, 2014 Rise Set
Actual Time 7:23 AM EDT 8:02 PM EDT
Civil Twilight 6:56 AM EDT 8:29 PM EDT
Nautical Twilight 6:24 AM EDT 9:01 PM EDT
Astronomical Twilight 5:51 AM EDT 9:33 PM EDT
Moon 8:26 AM EDT (4/1) 10:22 PM EDT (4/1)
Length of Visible Light 13h 33m
Length of Day
12h 39m
Waxing Crescent, 4% of the Moon is Illuminated
Apr 1
Waxing Crescent
Apr 7
First Quarter
Apr 15
Full
Apr 22
Last Quarter
Apr 29
New

Hourly Weather History & Observations

Time (EDT) Temp. Dew Point Humidity Pressure Visibility Wind Dir Wind Speed Gust Speed Precip Events Conditions
12:52 AM 55.9 °F 30.9 °F 39% 29.97 in 10.0 mi SSE 11.5 mph - N/A   Overcast
1:52 AM 53.1 °F 35.1 °F 50% 29.96 in 10.0 mi SSE 10.4 mph - 0.00 in Rain Light Rain
2:52 AM 53.1 °F 33.1 °F 47% 29.96 in 10.0 mi South 9.2 mph - 0.00 in   Overcast
3:52 AM 53.1 °F 32.0 °F 45% 29.95 in 10.0 mi Calm Calm - N/A   Overcast
4:52 AM 53.1 °F 32.0 °F 45% 29.94 in 10.0 mi SSE 3.5 mph - N/A   Overcast
5:52 AM 57.0 °F 33.1 °F 40% 29.92 in 10.0 mi South 8.1 mph - N/A   Overcast
6:52 AM 57.0 °F 35.1 °F 44% 29.92 in 10.0 mi South 8.1 mph - N/A   Overcast
7:52 AM 54.0 °F 35.1 °F 49% 29.92 in 10.0 mi South 8.1 mph - N/A   Mostly Cloudy
8:52 AM 60.1 °F 35.1 °F 39% 29.93 in 10.0 mi SSW 11.5 mph - N/A   Partly Cloudy
9:52 AM 64.0 °F 39.0 °F 40% 29.94 in 10.0 mi SW 17.3 mph 25.3 mph N/A   Partly Cloudy
10:52 AM 66.9 °F 37.9 °F 34% 29.94 in 10.0 mi SW 18.4 mph 26.5 mph N/A   Clear
12:52 PM 72.0 °F 37.0 °F 28% 29.93 in 10.0 mi WSW 17.3 mph 32.2 mph N/A   Partly Cloudy
1:52 PM 73.9 °F 32.0 °F 21% 29.94 in 10.0 mi WSW 20.7 mph 34.5 mph N/A   Partly Cloudy
2:52 PM 73.9 °F 28.9 °F 19% 29.94 in 10.0 mi WSW 20.7 mph 36.8 mph N/A   Partly Cloudy
3:52 PM 75.0 °F 30.0 °F 19% 29.94 in 10.0 mi WSW 17.3 mph 32.2 mph N/A   Scattered Clouds
4:52 PM 75.0 °F 27.0 °F 17% 29.94 in 10.0 mi West 19.6 mph 33.4 mph N/A   Scattered Clouds
5:52 PM 73.9 °F 28.9 °F 19% 29.94 in 10.0 mi West 24.2 mph 29.9 mph N/A   Scattered Clouds
6:52 PM 70.0 °F 27.0 °F 20% 29.96 in 10.0 mi West 15.0 mph - N/A   Mostly Cloudy
7:52 PM 66.9 °F 25.0 °F 21% 29.99 in 10.0 mi West 15.0 mph - N/A   Mostly Cloudy
8:52 PM 64.0 °F 27.0 °F 25% 30.01 in 10.0 mi West 10.4 mph - N/A   Overcast
9:52 PM 64.0 °F 26.1 °F 24% 30.03 in 10.0 mi WNW 9.2 mph - N/A   Overcast
10:52 PM 61.0 °F 28.9 °F 30% 30.05 in 10.0 mi NW 9.2 mph - N/A   Overcast
11:52 PM 59.0 °F 30.9 °F 35% 30.05 in 10.0 mi West 3.5 mph - 0.00 in   Overcast